GFSSW_850_spd_003.txt.gz
Wind_Speed
20 18 17 17 16 16 15 13 12 11 11 9 8 9 8 9 9 11 12 6 7 6 10 10 8 4 4 9 15 19 1 5 8 10 5 10 8 15 14 14 21 13 30 31 27
19 18 16 16 15 15 13 11 11 11 10 8 9 9 8 9 9 14 7 8 8 9 12 11 11 8 10 9 8 7 4 5 6 9 7 8 13 8 9 12 19 25 31 29 26
18 17 16 14 13 12 11 10 10 11 9 9 9 9 8 6 8 17 9 7 8 10 8 11 14 19 20 21 15 5 6 6 10 23 18 9 15 10 13 5 20 32 32 26 21
16 15 14 12 11 10 11 11 10 11 10 9 9 9 4 5 3 7 4 6 8 9 9 10 12 12 6 6 15 4 13 16 7 13 14 9 12 4 4 9 24 27 29 25 20
14 13 12 10 10 11 11 10 10 12 11 9 10 7 4 6 9 7 3 3 6 9 10 12 16 16 6 8 4 9 9 14 8 6 12 8 10 4 8 16 15 25 27 24 20
11 10 9 9 10 11 10 11 13 13 9 8 9 6 5 7 2 3 3 3 10 11 10 18 14 14 14 10 6 11 15 14 8 4 3 1 3 4 6 16 15 24 28 24 22
7 7 7 9 10 11 12 15 15 10 8 8 8 8 8 14 6 3 2 7 5 5 12 1 6 12 4 6 10 15 6 8 8 13 6 6 4 7 14 17 18 13 20 22 21
4 5 8 9 12 14 17 15 11 8 6 6 8 8 7 5 5 5 4 3 6 6 7 4 5 11 10 12 4 4 5 5 6 13 9 11 7 7 16 12 18 21 18 15 23
2 6 9 11 15 17 16 13 9 6 5 6 5 6 7 5 7 1 7 6 4 3 4 1 3 3 5 5 1 2 5 5 6 17 6 5 3 16 20 18 13 15 22 18 14
4 7 11 15 18 18 14 10 6 5 5 6 6 3 13 4 6 6 4 3 2 5 6 4 4 2 5 5 3 5 6 7 8 5 4 4 1 4 11 10 11 6 3 14 22
7 10 13 16 18 16 13 8 3 2 10 9 11 10 6 5 10 8 5 0 3 8 4 13 6 3 3 3 4 5 5 12 5 5 2 4 6 8 23 26 31 29 37 37 32
8 10 12 16 16 14 14 4 6 2 6 9 4 3 4 4 8 8 6 3 6 6 8 4 5 3 5 2 4 4 6 6 3 4 3 1 5 9 20 17 26 32 34 32 28
9 11 14 13 11 12 10 6 9 2 3 1 3 4 1 5 5 5 2 7 9 6 7 7 2 4 3 8 9 7 5 5 3 6 6 2 3 9 10 25 33 34 30 25 23
9 10 11 9 7 6 9 4 5 5 4 4 4 4 2 5 3 1 3 4 2 5 9 7 1 3 5 7 6 4 6 5 6 3 3 5 2 6 14 15 21 30 32 31 28
9 10 11 11 2 2 7 5 2 8 4 5 3 6 4 2 11 1 1 6 4 3 7 2 7 8 8 4 5 3 0 3 3 4 3 7 5 1 14 12 10 19 20 20 18
9 10 10 4 2 2 4 2 3 6 0 2 5 5 4 5 5 5 2 1 3 8 8 4 10 4 5 5 3 5 4 5 3 2 2 6 5 2 5 8 5 19 21 15 10
9 8 6 3 1 2 2 1 5 5 4 4 4 5 7 0 6 7 4 6 4 3 2 5 5 3 5 4 1 4 5 3 4 4 3 5 6 2 6 6 11 16 20 14 13
11 8 5 5 2 6 1 5 1 2 4 6 5 5 6 3 3 2 7 5 9 6 1 5 4 6 8 5 2 5 4 4 1 1 4 8 4 2 11 22 18 14 10 12 11
13 9 7 5 4 5 1 3 7 3 6 6 4 5 4 1 1 6 7 4 6 7 5 3 3 3 5 4 3 4 5 2 5 4 3 2 4 4 9 9 16 9 4 18 17
14 10 6 9 5 3 3 5 2 5 4 5 6 5 7 7 4 4 5 5 2 9 7 5 4 3 2 2 5 5 2 6 4 2 2 1 2 4 3 4 7 9 16 13 15
15 7 11 8 8 3 2 5 3 11 11 2 2 1 4 7 6 4 4 5 8 4 11 5 3 2 2 5 4 5 3 4 3 4 4 1 4 4 7 7 7 15 22 23 20
13 1 14 13 4 4 3 4 5 2 6 5 6 6 4 5 6 6 4 5 9 9 3 3 4 3 3 3 2 2 3 4 4 3 1 4 5 3 8 17 17 20 17 16 14
7 4 15 15 3 3 7 3 4 5 2 2 5 5 5 4 5 10 5 8 11 5 1 3 2 3 5 4 4 2 3 5 6 3 3 4 5 3 11 11 8 18 17 14 12
3 2 4 10 10 4 4 2 3 9 5 6 5 2 6 5 5 4 4 3 7 4 3 3 3 5 5 3 1 3 4 3 6 4 4 6 6 5 8 7 15 16 15 15 14
5 4 11 3 5 6 5 8 6 1 0 4 1 4 5 4 5 5 5 4 2 0 3 3 3 5 4 6 5 4 5 6 4 6 6 9 8 13 6 10 12 13 14 15 13
5 4 14 13 18 3 4 5 9 7 6 5 4 6 8 4 2 6 8 5 4 5 2 5 1 2 3 7 9 5 8 8 7 7 6 3 7 12 15 17 14 16 16 16 15
5 2 4 3 4 4 3 1 2 8 3 6 11 13 14 6 23 20 21 20 11 4 3 4 4 3 2 4 5 4 4 3 2 2 2 1 5 13 12 16 16 15 13 12 15

GFSSW_850_spd_006.txt.gz
Wind_Speed
22 22 21 21 19 18 16 14 12 12 10 11 11 11 10 10 12 14 16 10 8 8 5 8 6 5 7 5 10 5 3 2 3 4 7 8 12 16 22 22 10 6 32 34 28
22 22 21 20 17 16 14 12 11 11 10 11 11 9 8 10 10 16 9 9 6 7 9 11 9 7 5 5 7 7 3 5 8 5 6 5 15 12 8 19 17 24 29 34 31
22 21 20 18 15 14 12 11 11 10 10 11 10 6 6 6 10 13 11 8 6 8 12 12 9 7 10 4 5 2 4 5 5 22 16 11 11 9 20 3 26 34 38 35 32
20 19 17 15 14 12 11 11 11 11 11 11 7 5 4 5 4 1 7 6 6 11 14 14 10 6 5 8 12 3 6 5 9 8 14 13 13 7 9 8 24 29 35 35 29
18 17 14 12 12 11 11 12 11 11 12 9 4 4 4 6 11 6 2 2 7 13 15 14 12 10 6 5 5 7 5 9 13 12 8 13 8 6 8 18 27 33 34 29 25
15 13 12 10 10 10 11 11 11 11 10 6 4 5 5 5 3 7 4 4 9 10 10 13 12 10 14 12 7 9 16 10 9 7 6 6 1 7 9 29 34 34 32 27 24
11 10 9 9 9 10 12 11 11 11 8 4 5 6 9 14 4 0 8 9 9 5 6 7 0 7 3 7 22 22 6 4 2 5 2 6 3 3 15 29 35 34 31 30 27
8 8 7 9 10 11 11 12 12 9 5 4 4 5 9 4 7 4 5 4 2 5 4 4 0 2 7 11 5 5 6 3 4 6 2 5 6 6 17 24 32 35 36 32 30
6 6 8 10 11 13 14 12 8 5 3 2 3 4 9 7 8 2 2 4 3 3 2 5 3 5 6 4 5 7 3 3 3 10 3 3 4 7 23 22 25 23 12 12 22
3 6 10 13 14 15 13 9 5 3 3 5 3 2 10 6 6 9 6 2 2 2 6 6 6 5 5 5 2 5 4 5 7 6 4 5 3 5 4 12 19 19 21 26 22
4 8 12 15 16 15 12 8 3 2 9 8 3 7 7 9 7 9 6 1 1 1 2 7 6 3 3 4 4 3 3 7 3 5 5 7 7 6 17 31 26 31 38 37 35
8 10 15 17 15 13 12 3 6 5 6 15 12 13 9 6 4 10 6 1 0 2 3 6 2 3 4 5 5 4 7 5 5 7 5 9 10 7 13 18 29 33 35 34 33
10 12 16 14 11 10 10 5 6 5 3 2 2 5 2 1 5 6 2 2 3 2 3 6 4 2 5 7 7 5 7 3 2 2 8 15 7 9 9 20 25 28 31 30 28
13 14 13 11 6 6 6 5 4 5 4 4 2 2 1 4 3 2 1 1 5 7 7 5 7 5 5 4 1 2 2 4 3 3 6 1 4 3 6 12 18 25 30 29 27
13 14 13 11 3 2 3 5 4 3 4 4 1 5 3 1 6 1 2 2 0 3 6 4 4 6 5 0 2 3 1 2 1 3 3 2 7 5 5 8 9 16 26 23 18
12 13 11 6 1 3 5 3 2 6 1 3 5 4 1 0 3 5 2 4 5 6 6 4 3 3 1 3 1 1 1 6 4 3 3 4 5 6 4 6 5 13 24 19 13
11 12 10 5 3 2 4 3 5 5 2 3 4 4 4 2 2 4 5 6 4 5 3 5 4 4 5 4 5 8 5 3 4 4 4 4 7 1 1 5 14 17 19 17 13
12 13 10 5 3 3 4 5 2 4 4 3 5 4 4 3 6 4 3 4 6 4 3 4 4 4 6 2 1 3 5 5 4 2 3 5 3 2 6 24 23 17 16 16 16
14 12 9 6 2 4 1 3 6 6 4 6 5 5 2 2 6 6 4 2 2 1 5 4 0 2 1 2 1 3 4 4 6 3 3 1 4 3 5 6 14 7 13 15 16
16 11 9 7 3 3 4 5 3 2 2 5 6 5 4 5 4 4 2 3 2 7 2 2 4 2 3 5 6 5 2 4 4 2 1 3 3 4 5 5 7 10 13 15 18
17 8 11 11 5 2 3 5 2 6 8 4 3 5 6 7 5 3 3 3 6 4 8 2 4 4 4 3 1 5 3 5 4 3 4 2 5 5 6 8 10 17 25 22 18
17 3 15 13 3 0 2 4 2 4 5 5 3 3 5 4 5 3 3 4 9 3 3 2 5 3 1 3 1 1 3 4 4 2 2 4 4 3 6 18 24 21 21 21 19
16 5 13 15 3 2 5 4 3 2 2 2 3 3 3 4 6 3 4 4 10 4 2 2 2 3 6 5 6 4 2 5 6 3 3 5 5 4 5 13 16 23 22 19 14
9 2 4 8 3 5 2 1 2 6 3 5 4 7 5 4 6 4 3 3 5 4 3 1 3 4 6 4 3 0 2 3 5 3 4 6 6 5 6 10 17 21 18 13 8
6 4 10 3 4 3 3 3 2 2 2 5 4 3 5 4 3 4 3 2 4 2 3 3 4 2 2 3 1 1 2 1 4 4 5 7 7 6 6 8 16 18 13 6 5
4 4 10 10 16 5 4 6 9 3 3 1 2 4 6 5 6 7 7 3 4 1 3 5 2 1 0 5 6 3 5 5 4 4 4 9 5 6 12 19 16 12 9 6 5
6 6 12 1 6 4 4 6 8 9 1 3 16 7 10 2 16 19 13 11 8 5 3 4 4 3 3 5 6 5 4 3 1 4 3 6 6 9 6 13 13 10 6 2 2

GFSSW_850_spd_009.txt.gz
Wind_Speed
22 22 23 22 21 20 19 18 15 14 13 12 12 11 10 12 12 17 21 10 10 5 6 8 7 6 8 6 6 1 4 2 3 8 11 17 5 15 8 22 6 2 20 32 31
22 23 22 22 20 18 17 16 14 14 13 12 11 9 9 10 14 20 4 12 10 7 12 11 8 6 4 4 5 4 4 9 6 11 8 14 15 16 8 10 6 20 25 35 34
22 23 21 20 18 17 15 14 14 14 13 11 8 7 6 9 12 7 10 10 11 9 9 8 9 6 5 4 5 4 4 3 3 19 18 17 8 6 20 2 23 30 36 36 33
21 21 19 18 16 15 14 14 15 13 12 8 6 5 6 6 3 2 8 9 9 10 9 11 7 5 4 4 7 3 12 2 5 19 13 11 11 8 8 12 26 25 36 37 33
20 19 18 15 13 13 13 13 14 12 9 5 5 5 7 6 8 1 4 5 8 10 13 14 14 11 5 6 3 3 3 1 13 13 13 11 7 7 6 14 27 30 37 36 33
18 16 15 12 12 11 11 12 11 9 6 6 5 7 6 5 1 3 6 8 8 11 14 17 12 14 5 9 8 9 3 7 9 13 10 7 3 1 2 27 32 35 37 35 34
15 14 12 11 11 10 10 9 8 7 7 5 5 7 9 12 3 3 5 6 10 9 9 10 13 16 6 4 11 15 5 4 2 3 3 6 2 4 12 29 34 36 36 34 33
13 12 10 9 9 8 8 7 7 7 5 4 5 5 8 5 9 4 3 7 5 4 2 3 3 7 2 15 7 5 5 3 5 2 2 4 7 3 15 29 31 34 25 22 27
11 9 8 7 8 8 7 8 7 5 4 4 4 4 8 6 7 3 2 3 4 2 0 1 3 5 6 5 5 6 3 2 4 8 2 3 4 7 14 22 13 13 14 13 14
9 7 6 8 8 9 11 9 6 4 4 3 2 2 9 3 6 6 2 2 0 3 7 6 4 4 4 5 3 3 2 3 6 5 4 2 5 8 13 18 19 18 13 13 15
7 5 7 10 12 13 11 7 2 2 9 7 3 5 9 4 6 9 2 3 2 7 5 5 6 2 4 1 4 2 3 5 4 1 8 5 8 10 11 26 23 23 29 27 22
6 7 10 14 17 13 11 3 4 3 5 13 15 16 12 6 5 10 1 3 5 2 1 7 2 1 6 5 3 5 4 2 4 8 11 12 12 9 13 11 19 25 31 33 31
9 12 15 15 15 13 10 5 6 4 1 4 4 6 2 4 3 5 2 1 3 2 3 5 2 3 5 6 5 4 2 3 6 8 6 12 9 8 8 14 20 23 28 29 27
12 14 15 13 11 7 3 2 3 5 4 5 1 3 2 7 3 4 3 2 4 5 6 6 6 5 5 5 3 3 2 3 9 5 4 4 3 2 3 4 7 17 25 26 24
14 16 15 13 7 6 1 4 3 1 4 4 2 2 3 3 5 3 4 1 4 4 5 4 2 5 5 1 2 3 2 2 2 4 4 4 6 3 6 3 4 11 22 24 19
16 17 16 7 7 4 2 2 0 6 2 1 3 1 3 2 2 4 4 8 6 6 7 3 1 3 1 1 0 2 5 6 4 3 3 2 5 6 8 7 6 9 19 23 20
16 16 14 8 6 3 4 1 5 4 1 4 4 3 2 2 5 5 4 6 4 5 3 5 4 5 3 2 2 5 5 3 3 4 4 3 2 5 12 10 11 18 22 20 19
16 17 13 9 6 3 2 5 1 3 5 2 4 3 3 4 4 4 3 3 5 4 3 3 5 4 5 1 2 3 4 5 5 3 2 4 2 4 5 19 25 24 21 16 14
20 17 13 8 6 2 1 3 6 6 4 6 4 4 2 3 5 5 3 2 3 3 5 4 1 3 1 2 2 1 3 3 6 3 3 3 3 5 5 8 17 17 18 16 16
21 17 13 9 5 3 4 5 4 4 1 4 5 3 5 4 4 4 2 3 2 5 2 5 4 2 4 3 4 4 4 3 4 3 1 2 3 4 8 9 4 7 19 19 19
21 10 13 11 6 2 3 5 4 5 1 3 5 4 4 6 4 3 1 3 3 4 6 2 3 4 2 3 1 4 2 6 5 3 4 2 5 5 9 7 7 14 24 25 24
20 2 16 14 4 1 3 4 5 2 6 4 4 3 5 4 4 3 4 0 4 1 2 1 5 3 1 5 3 1 2 4 4 3 1 3 5 3 8 16 22 20 26 23 21
15 5 15 17 4 2 4 4 1 1 3 2 3 2 2 5 6 2 3 0 3 3 3 2 2 3 6 6 5 2 3 5 6 3 4 5 5 2 9 9 11 26 25 21 16
13 2 4 8 4 7 3 4 1 4 3 3 3 5 5 5 6 4 3 1 3 5 5 3 3 5 6 4 3 3 2 3 4 3 3 5 4 4 5 8 15 20 19 16 11
9 5 9 3 3 4 5 2 3 2 1 3 4 3 5 4 3 4 2 2 4 3 4 4 3 1 3 4 2 1 3 5 6 4 5 6 7 7 9 10 20 20 15 11 8
8 5 6 7 20 6 3 5 7 2 3 1 6 2 2 6 6 8 6 2 3 6 4 4 3 1 1 6 6 3 5 6 5 4 6 3 4 4 14 16 19 18 15 11 7
8 5 8 2 5 5 5 6 8 6 6 1 11 5 5 2 8 12 8 10 7 5 3 4 5 3 3 4 5 6 7 6 4 3 6 6 7 12 6 16 21 17 13 10 7

GFSSW_850_spd_012.txt.gz
Wind_Speed
23 23 23 24 24 23 23 21 19 16 15 14 13 12 12 12 13 16 20 10 5 8 8 8 10 6 6 4 4 2 4 1 4 7 4 18 2 6 4 15 4 2 10 26 25
23 23 23 24 23 22 22 20 18 15 14 13 11 10 9 11 14 19 13 9 10 9 9 9 7 6 4 4 5 4 3 7 5 7 6 30 13 10 6 10 4 8 13 30 28
23 23 22 23 22 21 20 18 16 14 13 11 9 7 6 9 15 4 2 15 14 10 8 9 6 5 4 3 5 4 5 4 6 24 19 10 11 7 16 1 11 28 33 32 31
21 21 22 21 21 19 17 16 14 13 11 8 7 5 5 7 2 4 4 7 10 9 9 10 6 4 3 3 5 1 10 8 17 26 12 12 12 6 13 5 21 23 31 34 33
19 20 20 19 19 17 16 13 12 10 7 7 5 4 5 6 7 6 2 6 10 13 14 15 14 8 5 6 7 5 5 1 6 14 11 17 7 6 7 5 23 30 32 34 32
17 17 18 17 16 14 13 10 9 6 7 6 5 4 4 4 2 1 4 4 10 13 17 18 10 14 5 5 5 8 3 4 3 15 11 9 5 5 4 18 25 31 31 31 29
15 15 15 15 13 11 10 7 5 5 6 6 4 6 9 11 1 10 6 5 10 13 14 16 19 11 6 1 3 8 6 5 6 3 4 13 4 1 6 24 28 33 32 29 28
14 13 13 12 9 7 6 5 5 6 7 4 4 6 8 3 8 6 6 6 6 8 10 10 10 16 9 5 4 6 5 4 3 2 4 5 5 8 12 27 24 25 24 23 24
13 11 11 8 6 5 5 6 7 6 4 3 4 4 8 3 7 5 5 4 5 3 3 4 9 7 8 5 5 6 2 2 2 2 3 4 2 11 7 19 14 15 16 15 18
12 9 8 7 6 7 8 8 6 4 5 3 4 2 6 1 6 5 4 4 1 2 3 4 2 4 4 5 4 5 3 0 3 2 11 8 5 7 7 14 10 11 11 11 13
10 7 6 7 9 11 12 8 2 2 10 7 2 3 7 7 5 4 3 3 3 5 2 5 8 3 3 4 4 4 3 3 2 3 8 4 6 8 14 15 14 13 13 11 10
9 6 9 11 13 14 12 4 1 1 5 12 15 15 12 7 2 4 1 1 4 2 1 7 4 2 2 4 5 5 5 3 4 5 8 8 9 7 13 7 11 18 19 19 19
8 9 13 14 14 14 10 3 2 5 2 2 3 5 1 7 3 4 2 2 2 3 5 6 2 2 2 5 6 4 5 2 6 7 6 6 6 6 6 11 14 21 24 23 22
10 13 15 15 11 9 6 1 2 2 4 5 1 1 2 5 4 4 2 2 4 5 5 5 4 4 5 6 3 2 3 3 8 4 4 3 2 1 1 2 3 13 19 19 21
13 17 17 17 6 9 3 1 0 0 4 4 2 1 3 4 8 2 5 1 4 4 4 2 2 5 6 1 3 2 5 5 3 5 5 3 5 3 4 4 6 10 15 20 22
17 20 19 12 9 6 0 1 3 6 3 2 2 1 3 3 3 2 5 9 6 6 7 3 3 4 0 3 2 3 5 7 5 3 2 3 5 4 7 8 5 10 17 21 20
19 21 20 11 9 5 3 3 5 4 1 2 3 2 4 5 6 5 5 6 3 5 4 6 4 5 2 3 3 6 6 3 4 3 4 2 3 6 11 7 12 18 21 19 18
20 20 18 12 9 5 3 5 2 3 5 1 3 3 4 3 3 5 3 3 5 5 3 4 5 3 4 2 3 2 5 5 5 3 3 3 4 4 6 19 28 25 20 18 19
21 21 16 13 10 7 3 4 6 6 3 5 4 4 2 2 5 5 3 2 2 3 5 4 1 3 1 1 3 2 2 3 6 2 2 3 4 4 4 6 17 22 18 19 19
23 20 16 14 11 8 5 4 4 4 2 3 4 3 3 3 4 3 1 2 1 2 2 5 3 2 3 2 6 2 5 3 3 2 2 3 4 4 5 8 8 12 20 20 21
22 11 17 14 11 6 4 5 5 7 4 3 5 4 2 4 3 2 1 1 1 3 4 3 4 4 1 3 1 2 2 6 5 3 4 1 5 5 10 11 10 14 23 26 27
16 3 18 16 4 1 4 5 4 3 1 2 4 3 4 3 4 3 4 1 2 1 3 1 5 2 2 2 3 2 3 4 4 3 1 3 5 3 8 13 16 19 24 25 26
13 5 16 18 4 2 2 2 4 3 2 2 3 3 3 4 5 2 3 0 1 2 5 4 2 3 6 6 4 2 3 4 6 3 4 4 5 3 7 10 13 22 24 23 22
13 2 4 7 4 8 4 3 3 1 1 4 4 5 4 3 5 5 3 2 2 3 6 4 3 5 6 4 2 3 4 4 5 3 3 6 4 5 6 7 13 20 23 21 18
11 4 7 3 2 5 5 2 2 1 2 4 4 3 5 4 3 3 2 2 4 2 4 4 4 1 2 3 2 2 4 6 6 5 5 5 7 6 11 11 21 25 23 20 17
10 6 5 3 19 7 4 7 5 2 3 1 5 2 3 5 6 8 6 3 4 4 3 3 3 0 1 4 5 3 6 6 4 4 7 4 8 6 6 17 20 27 24 20 16
10 9 11 1 4 6 6 6 7 5 4 1 6 5 4 1 6 14 11 12 6 5 3 3 5 3 4 3 5 6 9 9 5 5 6 6 8 7 5 16 26 27 23 20 15

GFSSW_850_spd_015.txt.gz
Wind_Speed
20 21 21 22 24 23 21 20 19 18 17 15 12 11 13 14 14 17 19 9 4 9 9 9 12 8 5 6 4 3 2 4 6 10 4 9 5 5 1 8 5 5 10 19 26
21 21 21 22 23 23 21 19 17 16 15 12 10 9 11 12 15 17 9 10 9 14 10 10 12 8 5 5 4 3 2 7 3 15 19 19 16 10 4 8 3 8 13 28 25
21 21 22 22 22 22 20 18 15 14 12 9 9 8 9 11 14 3 2 13 15 13 9 9 6 6 3 4 5 4 3 4 6 14 18 17 3 9 11 8 8 16 29 26 25
20 21 21 21 22 20 17 15 14 11 8 7 7 6 7 8 1 4 5 12 14 11 11 11 9 5 4 4 6 3 6 7 6 11 21 10 9 6 12 3 6 19 30 28 26
20 20 20 20 20 18 15 13 10 7 6 6 5 6 7 6 6 11 6 10 12 14 14 16 13 8 4 4 5 3 4 6 6 7 15 15 8 6 10 2 13 21 28 26 25
19 18 19 19 18 14 12 9 7 4 5 5 5 5 7 4 3 3 5 3 12 15 16 16 6 10 3 3 5 3 6 4 3 13 11 9 4 5 3 12 21 25 26 25 24
16 16 17 18 15 10 8 5 5 4 5 4 4 7 11 10 2 7 6 3 8 13 14 15 16 5 3 2 4 7 4 5 5 5 4 14 5 5 5 16 23 22 22 23 22
14 15 16 16 12 8 5 4 5 5 5 5 4 7 8 2 6 7 6 4 6 9 14 10 11 15 5 1 4 2 3 4 1 4 4 2 4 7 3 12 16 20 21 22 19
13 14 14 13 9 6 5 5 5 6 5 4 4 5 7 2 6 3 4 2 6 4 8 2 11 6 4 4 2 7 4 3 4 9 4 5 2 10 3 9 9 12 16 18 16
13 13 12 11 7 6 6 8 7 5 5 3 5 2 5 1 4 3 3 2 2 13 10 7 4 3 2 3 4 4 5 2 5 5 11 9 4 8 6 8 9 9 11 12 15
11 10 11 9 8 8 11 10 3 3 10 7 2 2 3 6 6 5 3 0 3 4 3 3 3 3 3 1 2 5 3 4 3 2 7 6 5 8 6 7 6 8 9 10 10
10 9 10 10 10 12 13 5 2 2 4 12 16 16 12 7 2 3 3 3 3 5 5 4 3 2 4 5 5 4 6 4 4 3 6 6 9 6 7 3 3 8 10 12 13
10 10 11 12 13 14 12 4 2 4 1 4 8 7 2 9 4 5 2 3 7 4 3 4 2 2 4 3 6 2 6 4 5 7 7 6 3 3 5 5 5 7 11 15 17
12 11 13 14 13 11 9 3 2 1 3 4 3 2 4 6 3 4 3 2 5 4 4 5 3 4 3 3 2 4 2 8 12 2 3 2 3 1 2 3 5 8 12 17 24
14 14 15 19 8 12 3 5 4 3 3 4 2 3 6 4 7 3 3 3 5 4 2 1 1 3 5 1 1 3 6 8 3 4 4 1 2 2 6 7 9 11 10 15 21
17 17 20 22 9 8 7 4 5 6 3 2 1 2 4 4 3 1 3 6 6 5 5 3 2 3 2 2 4 9 5 6 3 2 1 1 3 5 9 14 14 13 12 16 21
19 21 24 19 10 10 7 7 4 4 2 2 3 2 3 2 4 3 3 4 2 4 4 5 3 2 2 4 2 3 4 1 1 0 3 1 3 5 14 11 19 21 20 20 22
21 23 25 19 12 9 8 3 3 3 5 1 3 3 4 2 3 4 3 3 5 4 3 3 1 3 4 2 3 2 3 4 5 3 1 1 5 2 2 14 22 24 20 22 22
23 23 25 19 13 10 5 4 6 6 4 6 3 4 1 2 4 4 3 2 1 2 4 3 1 2 3 1 1 3 2 2 6 2 0 2 3 5 1 8 15 19 21 22 23
25 21 24 18 16 14 4 5 4 5 2 2 4 2 3 2 3 3 1 1 2 2 1 5 3 1 1 2 7 1 6 3 2 3 3 2 5 6 5 12 13 17 22 22 24
23 12 19 20 18 10 4 5 5 7 7 5 5 4 3 5 3 2 4 1 1 1 2 3 2 2 1 1 4 3 2 5 4 1 2 2 4 4 9 14 16 23 23 25 25
18 3 22 23 4 1 4 5 3 4 3 4 4 4 4 3 3 3 6 1 1 1 4 1 4 2 1 0 2 1 3 4 3 4 1 0 5 1 6 10 13 17 21 23 24
14 6 19 23 4 1 2 2 2 2 1 3 3 3 2 4 4 2 3 2 3 3 5 5 1 3 3 2 1 2 2 4 5 2 5 3 3 1 3 6 14 17 18 22 25
17 3 6 8 6 8 5 3 1 3 2 4 5 4 4 3 4 5 3 2 2 3 4 3 2 4 7 3 1 4 4 5 3 3 4 6 4 4 5 7 11 15 18 21 27
10 4 8 3 1 5 4 5 4 2 1 2 3 2 5 4 2 3 2 2 3 3 3 2 4 2 1 1 2 2 4 8 7 4 6 3 8 6 9 13 16 15 19 24 27
9 6 6 4 18 7 2 6 6 2 1 1 6 3 2 5 6 8 6 4 4 2 2 2 4 1 4 1 3 3 5 7 8 4 10 6 14 10 4 8 15 20 25 26 27
9 12 14 2 4 6 6 6 7 7 3 4 7 5 4 1 4 9 8 11 6 5 3 2 5 3 3 2 2 5 9 11 6 6 7 9 8 6 6 12 20 23 27 28 27

GFSSW_850_spd_018.txt.gz
Wind_Speed
18 20 20 20 22 23 22 22 22 21 20 16 13 13 12 13 13 17 19 9 5 12 6 12 12 10 7 9 6 4 6 8 8 11 11 14 12 8 7 3 3 3 2 10 21
19 20 21 21 21 22 22 20 21 19 17 13 12 11 11 12 14 17 6 10 9 15 12 13 14 12 9 10 7 8 6 5 5 11 17 18 14 10 7 13 7 5 10 20 22
18 20 20 20 21 20 21 19 18 17 14 11 9 9 10 10 12 2 4 12 16 15 11 10 12 10 9 9 9 7 6 4 8 12 7 8 18 11 8 10 8 11 24 22 21
18 19 19 19 19 19 19 17 15 14 10 9 9 7 8 6 0 3 1 13 17 17 14 13 11 11 9 10 12 9 7 2 13 15 11 15 13 9 9 9 6 15 25 25 21
17 18 18 18 18 17 17 15 12 10 9 8 7 5 6 5 7 6 7 14 17 16 15 14 13 9 11 12 10 12 2 4 6 8 13 10 8 2 6 5 13 22 22 21 18
15 17 16 16 16 16 14 12 10 8 7 8 5 4 5 6 5 5 6 9 11 13 13 13 7 8 5 4 11 3 4 1 5 12 8 8 5 5 8 8 15 21 19 18 17
15 15 15 15 14 14 11 11 8 6 5 7 5 5 9 10 4 4 6 3 11 15 14 14 9 5 4 4 3 7 7 5 6 14 6 7 9 6 4 7 14 17 15 14 13
14 14 14 14 13 12 9 9 6 5 6 6 5 7 7 4 6 6 7 4 8 13 13 7 10 9 6 2 4 7 7 8 6 13 5 9 12 6 2 11 15 17 15 14 11
14 13 13 13 11 9 6 6 5 4 6 4 5 5 6 5 5 2 2 2 3 10 10 6 8 6 5 8 6 7 8 8 9 2 7 7 9 5 3 12 14 14 13 14 11
14 12 12 11 9 7 6 5 5 5 6 4 7 4 5 2 2 2 2 3 2 12 9 2 5 6 6 9 9 8 8 13 12 4 8 7 6 4 5 12 14 15 14 14 13
14 12 11 9 8 6 7 6 2 4 12 7 2 5 3 5 1 4 3 4 8 7 4 7 6 6 11 8 3 6 6 11 8 4 5 5 7 4 5 9 13 14 14 14 13
14 12 10 8 9 10 13 8 6 1 5 13 16 14 13 10 2 5 1 5 2 8 2 4 4 3 5 5 4 5 9 8 5 3 4 9 6 5 4 6 9 12 13 14 12
15 13 10 9 11 14 18 13 2 5 4 4 9 7 5 6 4 7 2 5 4 3 7 8 5 2 4 6 6 4 4 10 6 7 3 9 7 8 4 5 7 8 9 11 12
16 14 12 10 10 15 17 6 6 4 4 5 4 4 4 4 5 2 4 3 3 6 5 3 3 4 6 5 3 5 1 9 13 12 8 7 7 9 7 7 8 9 11 12 13
18 16 14 15 8 15 6 7 4 4 5 6 5 4 5 6 7 2 3 1 6 6 4 4 5 5 5 2 1 3 7 9 7 4 5 10 7 8 8 9 12 13 14 16 18
20 18 17 21 17 14 8 2 6 3 4 6 5 6 7 4 3 3 2 5 6 4 3 4 3 2 3 5 2 11 10 6 3 2 6 4 7 6 8 15 15 18 18 19 19
22 21 23 25 12 14 9 8 4 6 2 7 9 7 9 5 4 3 4 7 5 8 8 6 3 4 4 9 6 6 9 4 5 6 8 2 6 11 3 4 18 21 21 21 21
24 23 24 28 14 10 11 5 6 3 7 2 5 8 9 5 3 3 7 8 2 4 8 9 7 4 2 3 3 7 6 4 5 5 4 3 6 1 1 6 14 22 24 24 22
25 24 28 30 20 10 7 5 7 5 6 8 7 13 6 5 4 5 3 5 2 2 4 5 4 4 2 2 2 5 6 2 2 1 3 6 5 10 4 8 15 24 25 25 24
27 24 28 28 26 15 5 7 5 3 3 8 12 10 12 10 8 8 8 3 4 1 2 3 3 2 4 2 7 3 8 3 3 3 4 3 6 5 6 10 15 23 26 26 24
20 11 19 24 19 12 8 9 4 7 6 9 9 7 10 9 7 9 8 4 3 4 0 5 3 5 3 6 6 4 4 1 0 2 3 3 1 3 1 8 16 24 28 27 25
18 8 21 26 13 9 11 7 4 5 4 6 4 5 11 10 8 7 9 2 4 3 4 3 1 4 6 4 2 3 4 7 4 4 0 2 4 3 1 3 12 20 24 25 24
20 10 21 29 9 6 5 7 5 5 6 8 8 3 3 7 4 5 5 2 3 5 5 6 4 4 5 5 5 7 8 4 5 1 6 3 2 3 2 5 9 16 20 22 23
20 8 9 15 9 15 12 13 10 4 3 3 4 3 6 4 1 7 7 3 3 3 3 3 3 5 7 1 1 6 11 11 10 4 4 9 9 7 7 7 9 14 19 23 24
15 8 16 10 11 14 16 13 15 6 4 6 3 6 7 5 5 5 5 5 4 5 3 3 5 4 1 1 3 4 8 13 15 13 8 7 11 7 6 9 11 11 16 20 23
15 7 9 23 18 13 12 11 16 7 5 7 6 8 6 5 7 10 9 7 4 6 4 1 2 1 3 2 2 7 11 12 16 16 14 18 19 14 12 9 10 14 18 22 23
17 11 23 7 12 13 10 14 14 11 2 1 8 7 5 3 4 9 7 9 6 6 5 2 5 4 2 2 2 6 15 17 13 12 14 13 15 4 6 10 12 14 18 21 23

GFSSW_850_spd_021.txt.gz
Wind_Speed
17 17 19 20 20 22 23 24 25 23 21 18 16 16 15 14 16 19 18 11 9 13 7 9 14 14 11 14 13 13 10 14 11 6 12 14 9 4 6 7 6 2 4 5 14
17 17 18 19 21 21 22 23 24 21 19 16 14 14 13 14 17 21 14 10 12 15 9 15 16 15 16 14 13 12 12 16 5 8 3 15 14 15 11 12 9 7 7 16 16
18 17 17 18 19 20 21 22 22 19 18 13 12 11 10 12 14 3 4 6 12 14 11 11 11 14 17 13 15 16 14 5 3 21 19 17 8 11 7 8 17 13 17 18 17
18 16 16 18 18 19 20 21 19 16 15 11 10 9 8 7 4 6 8 7 14 17 10 10 12 15 14 12 16 13 13 5 4 4 6 5 15 17 34 5 8 15 19 20 16
18 16 15 17 17 18 19 19 16 15 12 9 7 7 7 6 11 8 1 9 17 16 11 12 12 14 11 13 15 10 3 4 4 6 14 9 8 21 20 11 14 19 20 18 17
17 15 15 15 17 17 18 17 14 13 10 8 5 6 5 10 2 2 3 9 12 13 11 12 8 9 8 7 11 9 9 5 8 9 14 7 3 14 10 14 17 20 19 18 17
17 15 15 15 16 16 16 15 11 10 7 7 5 6 9 16 0 4 3 6 10 12 10 10 9 8 3 7 8 5 6 9 10 12 8 6 9 9 8 14 17 18 18 17 15
17 14 14 14 15 15 12 12 9 7 6 5 4 5 9 5 7 8 9 6 10 12 12 6 9 10 8 4 6 8 9 10 8 16 6 15 11 9 9 14 18 19 19 17 16
16 14 13 13 14 13 10 8 8 6 4 4 3 3 6 6 7 5 10 6 6 8 10 7 7 9 5 10 7 6 13 13 9 15 9 14 13 12 11 14 18 18 18 17 17
17 15 13 12 13 11 7 5 5 4 5 5 6 6 8 6 4 4 6 8 3 9 9 6 9 7 8 10 8 16 17 12 13 11 12 11 12 9 12 17 17 19 19 18 16
17 15 13 11 12 8 4 2 3 4 10 13 3 7 4 3 6 7 6 7 7 11 8 9 2 9 8 12 8 10 6 10 12 5 10 10 8 11 13 16 17 19 19 19 17
17 16 13 12 12 9 9 8 6 4 9 18 18 13 11 5 6 9 8 10 7 9 4 5 12 6 2 4 4 3 5 12 8 9 7 9 10 10 12 15 18 18 17 18 17
18 16 13 12 12 13 14 14 2 7 8 11 14 11 7 10 11 13 10 11 13 15 6 10 8 0 4 8 10 4 5 7 10 12 14 10 14 14 11 10 11 14 17 18 19
20 17 15 10 9 8 12 8 7 8 5 11 9 8 8 8 10 3 6 3 10 7 4 6 9 10 1 3 3 9 2 8 4 12 14 17 12 17 16 15 13 17 16 16 17
22 19 16 12 6 9 3 3 4 3 5 15 12 8 7 11 16 9 6 7 12 3 5 3 10 11 12 2 5 13 4 6 8 13 7 17 9 11 17 15 15 16 17 17 17
24 21 18 20 21 14 5 5 5 5 6 8 10 11 11 12 9 14 10 6 2 10 15 9 6 4 7 2 3 4 4 5 7 11 7 15 12 13 13 14 15 16 16 18 20
26 23 23 21 9 11 8 7 5 11 7 11 14 12 14 10 13 11 14 11 10 11 12 12 10 5 4 6 4 8 8 7 8 6 9 2 7 12 9 7 10 18 21 21 22
26 25 25 25 13 10 9 7 11 15 11 5 15 13 12 10 13 16 11 15 12 14 11 12 9 12 8 11 4 9 12 7 6 7 11 6 7 2 10 3 5 21 22 22 23
26 25 28 31 24 13 14 9 14 9 10 10 12 13 12 10 5 14 17 16 16 14 13 9 7 6 1 3 6 5 9 6 5 1 6 11 17 11 6 5 9 19 22 24 25
25 25 28 28 28 12 9 15 21 3 6 11 15 15 14 14 10 13 13 7 5 4 6 2 3 3 5 4 6 8 3 4 6 5 9 7 7 0 6 5 9 16 22 24 24
22 11 19 27 27 14 11 17 19 9 9 11 16 12 13 12 14 15 11 7 6 7 6 6 7 6 4 10 10 7 9 7 5 3 4 4 2 8 3 2 9 14 22 24 25
26 11 22 31 17 18 14 22 12 11 9 8 7 9 12 11 12 11 13 6 9 7 10 4 4 7 11 5 5 10 8 10 5 6 2 3 7 3 4 2 8 11 18 21 24
31 18 21 29 13 12 20 23 14 11 11 12 11 8 9 10 10 11 9 6 4 7 4 6 7 7 7 6 8 9 10 9 4 1 7 3 3 6 6 4 6 11 16 21 25
28 10 12 21 31 19 23 21 18 10 8 13 12 10 10 7 6 8 8 4 4 3 0 1 11 10 10 5 3 11 13 11 12 7 9 11 13 6 9 7 7 9 13 20 24
32 14 20 16 20 20 23 18 22 13 11 15 11 15 12 8 9 7 9 6 5 5 6 4 8 12 14 6 6 9 9 12 16 16 14 12 14 8 8 6 9 9 12 17 20
24 21 28 28 33 19 21 22 24 19 15 15 11 16 13 9 11 10 11 9 7 9 8 5 4 2 5 8 8 11 12 14 14 16 17 18 17 15 12 10 8 11 11 14 18
25 26 31 26 23 18 17 21 22 16 2 5 13 9 11 6 7 9 9 3 4 7 9 5 5 4 3 4 5 6 15 16 17 16 13 15 16 13 7 6 10 10 10 14 16

GFSSW_850_spd_024.txt.gz
Wind_Speed
17 17 18 19 20 21 22 23 24 24 24 23 20 18 17 16 17 19 22 11 6 10 9 6 10 14 12 17 18 18 11 13 21 17 6 22 24 20 13 14 13 11 3 19 18
17 18 18 19 20 20 22 23 24 24 23 21 17 15 13 16 20 22 11 8 10 10 12 9 12 12 16 16 20 14 11 20 1 10 7 10 28 30 3 8 14 21 20 18 17
17 17 18 19 19 20 21 22 24 22 21 19 14 13 11 13 14 2 8 7 8 10 11 9 10 12 15 20 18 18 16 12 6 23 10 11 21 5 13 8 12 5 22 18 19
17 17 17 18 18 19 20 21 22 20 18 15 12 10 10 8 4 9 10 6 7 11 11 13 13 12 15 16 17 15 19 18 6 12 16 11 16 23 14 14 4 6 22 20 19
16 17 17 17 18 19 19 20 20 18 15 12 10 8 8 6 11 8 5 1 9 14 10 11 11 12 15 16 12 13 13 5 6 4 27 25 20 15 16 20 6 3 16 16 17
17 16 17 17 17 18 19 19 18 15 12 9 7 7 5 9 2 4 3 2 7 10 8 10 9 11 14 15 14 9 13 7 5 8 2 14 20 14 10 14 14 18 17 16 17
17 17 16 17 16 17 18 18 16 13 10 7 6 6 10 15 1 1 3 5 7 9 8 7 10 7 7 8 6 5 7 3 5 13 7 23 13 10 25 25 17 18 16 13 15
18 17 16 16 16 16 17 15 12 9 8 6 5 6 9 3 9 7 8 6 7 10 12 9 7 10 13 15 3 7 2 8 10 5 5 7 2 9 17 19 18 20 17 17 14
19 17 15 15 15 15 15 12 9 6 5 4 3 4 8 5 10 10 11 9 5 9 11 8 4 11 14 7 8 3 7 12 9 19 11 10 7 11 10 18 19 21 20 19 16
19 17 15 15 14 13 12 9 7 5 4 5 5 8 10 10 11 5 8 7 4 6 6 9 6 8 9 7 5 9 12 11 11 11 14 15 13 12 15 19 20 21 16 17 16
19 18 15 15 13 11 8 6 7 2 10 11 1 11 7 4 6 9 8 8 5 9 9 9 7 4 9 13 12 15 13 15 12 12 10 11 14 13 16 15 18 16 21 21 17
19 17 16 14 13 11 10 6 7 6 10 18 18 17 15 9 8 14 11 11 10 6 16 6 2 7 14 13 13 15 10 8 8 5 7 11 11 15 15 18 19 19 23 24 23
20 17 16 13 12 13 14 17 2 14 7 12 20 18 15 15 16 16 14 15 4 3 2 6 5 18 19 9 12 13 3 8 6 9 9 9 13 15 13 17 20 22 22 24 24
21 18 16 10 8 8 13 6 6 4 5 9 14 13 17 12 17 13 16 13 12 12 15 9 24 23 6 13 10 6 11 4 11 11 7 6 6 6 16 12 14 18 21 22 22
22 20 17 12 7 9 4 4 4 3 4 12 18 15 19 18 15 11 4 15 15 10 15 11 10 12 9 2 12 3 15 12 16 8 4 11 6 10 20 11 15 15 17 19 22
24 21 19 19 20 15 4 7 4 3 6 7 11 11 13 17 19 20 12 12 9 11 7 6 12 2 6 9 13 12 10 13 9 8 2 15 11 7 14 19 8 13 17 17 17
26 24 24 18 6 8 9 4 5 7 7 8 12 14 16 14 14 14 16 13 10 10 9 10 11 6 14 10 3 8 9 6 6 6 4 14 7 9 17 10 17 28 22 20 18
27 24 26 26 14 3 10 7 10 12 20 4 14 15 16 14 16 15 14 13 16 16 8 7 8 9 7 11 6 17 11 2 4 3 11 9 5 3 17 18 29 31 22 21 20
28 25 28 29 20 10 15 11 9 13 20 10 14 13 16 13 9 15 17 17 16 18 4 6 4 18 5 3 4 6 2 3 9 14 3 4 17 6 8 9 6 23 22 21 21
30 17 31 30 27 13 9 18 14 22 11 12 14 14 14 15 9 13 15 13 8 8 22 9 5 27 8 4 7 6 7 3 2 2 4 8 13 4 6 5 3 12 18 20 21
24 12 17 28 26 16 12 17 18 30 9 6 16 15 15 12 14 12 11 11 15 12 5 5 18 6 6 7 9 6 6 6 8 3 1 3 3 7 7 5 5 6 20 22 24
29 9 22 32 16 18 14 22 27 24 12 10 16 16 15 12 13 12 14 13 13 10 5 6 3 4 10 2 6 8 9 10 3 4 2 1 7 4 5 4 3 5 10 24 25
29 19 30 34 13 12 19 25 27 24 14 15 15 16 10 11 7 10 5 5 7 3 1 1 2 4 8 7 8 8 11 10 5 3 5 3 4 4 4 1 1 5 9 14 23
27 10 14 27 26 20 23 20 24 31 17 16 16 14 8 10 9 9 6 4 4 3 4 4 5 8 6 10 4 7 12 10 10 3 3 8 13 8 9 9 7 10 6 10 17
23 14 18 13 19 19 20 18 25 21 22 19 16 17 11 8 11 7 7 7 3 2 2 2 7 10 13 15 3 10 11 8 12 10 10 10 14 12 9 8 5 3 8 9 13
23 17 25 13 28 21 20 25 24 22 17 15 15 13 14 9 9 10 11 8 8 7 7 5 1 3 3 11 14 12 14 13 15 13 14 14 13 10 8 8 11 10 9 5 10
34 24 22 19 22 20 20 22 24 18 22 23 19 14 17 5 12 12 16 12 4 9 9 6 3 2 2 5 6 5 9 16 15 14 12 10 10 7 11 6 6 5 9 6 9

GFSSW_850_spd_027.txt.gz
Wind_Speed
16 16 17 17 19 20 22 23 24 24 25 24 22 19 18 17 16 17 16 8 7 6 10 5 3 8 9 15 17 21 2 9 13 5 2 8 3 4 8 14 2 7 15 27 18
16 16 17 17 18 20 22 23 23 24 24 22 19 17 15 17 19 10 8 6 8 8 8 7 5 3 7 10 11 5 4 7 2 8 6 9 10 17 7 13 11 25 19 21 29
16 16 16 16 18 19 21 22 23 24 23 20 16 14 13 14 10 2 15 8 2 7 7 9 11 15 17 20 25 13 8 11 3 9 13 7 7 18 16 4 5 20 23 18 27
17 15 15 16 17 19 20 22 22 23 21 18 13 11 11 10 2 6 11 9 3 6 9 8 10 13 8 7 26 4 19 22 12 8 7 4 6 5 5 11 19 21 20 18 26
18 16 15 15 17 18 20 21 21 21 18 15 11 10 9 7 6 8 7 5 6 9 9 8 12 14 7 7 16 6 9 12 15 25 19 20 11 5 11 18 16 16 17 22 27
18 17 15 15 16 17 19 20 20 18 15 11 9 8 8 6 2 5 7 2 5 8 7 8 12 13 16 12 7 11 14 3 4 36 23 10 5 5 7 12 20 17 18 22 27
18 18 16 15 16 16 17 19 18 15 11 8 8 9 11 15 3 5 7 5 7 3 7 10 15 10 18 8 22 11 5 2 5 17 8 24 4 2 15 16 17 22 19 22 26
18 18 17 16 16 16 16 17 16 12 10 7 6 9 9 4 7 7 9 6 4 6 11 10 13 10 8 14 11 4 4 2 2 9 8 8 3 7 20 24 22 24 20 26 24
18 18 17 16 16 15 15 15 13 11 9 6 3 7 10 3 10 7 11 12 13 9 12 7 12 3 8 4 5 2 0 5 6 11 6 4 4 20 26 26 24 29 24 24 27
19 18 16 15 15 14 14 13 11 11 10 8 7 8 9 8 8 5 12 11 6 4 5 6 4 1 4 1 1 3 5 8 5 7 5 5 6 9 23 25 27 28 28 24 26
21 19 16 15 14 14 13 11 8 2 8 11 6 10 4 10 6 5 7 12 4 6 2 12 1 3 4 2 4 9 6 10 9 6 9 8 8 9 19 20 21 20 25 27 23
21 20 17 15 13 14 12 8 12 8 12 18 22 27 18 11 5 13 13 9 6 3 1 6 2 3 1 8 8 13 9 14 5 7 5 3 8 10 10 12 31 24 25 28 28
24 20 17 14 13 13 15 17 6 12 4 13 19 22 16 10 9 16 18 16 5 4 5 2 6 5 9 10 13 4 4 8 3 2 3 3 5 6 3 18 26 28 33 34 33
23 20 17 11 10 7 8 5 5 3 3 6 12 12 14 17 11 19 19 10 2 4 2 2 11 5 7 14 3 4 6 5 4 5 1 4 1 4 4 3 2 23 32 37 35
26 21 18 12 7 8 3 3 4 2 3 6 13 7 15 14 2 11 14 8 4 6 3 4 4 9 8 14 4 7 4 3 2 2 1 1 5 6 4 8 5 8 8 32 39
29 23 19 20 19 8 2 5 5 1 6 4 12 11 10 15 15 20 8 6 8 8 6 7 9 2 7 7 3 7 2 3 3 2 2 5 5 3 5 20 4 9 18 13 24
32 26 24 20 16 9 10 6 2 3 5 7 11 8 9 6 9 9 8 6 5 2 5 7 8 5 3 3 5 5 5 3 5 6 4 10 2 11 13 8 14 21 26 13 17
34 27 27 26 17 9 11 2 6 11 10 3 10 10 9 8 10 12 11 9 8 6 3 3 3 4 4 3 4 4 5 4 4 2 4 11 4 6 18 21 29 32 22 15 24
29 28 30 28 24 10 8 9 8 7 9 4 7 7 9 11 7 8 7 10 9 8 7 4 1 5 10 4 2 4 1 6 6 4 4 5 8 6 10 7 7 16 16 22 21
29 33 37 29 27 15 6 8 7 15 3 4 8 8 8 9 8 10 8 6 7 3 12 5 2 3 8 9 14 4 3 1 3 4 4 4 3 2 5 5 9 10 21 25 24
30 15 23 30 26 16 12 10 11 27 18 6 8 8 9 7 10 4 8 10 7 9 14 5 4 5 3 5 12 1 3 2 3 5 4 1 4 3 5 5 10 15 30 32 32
21 7 21 35 11 8 13 12 12 19 21 12 2 3 7 6 8 9 11 2 14 13 9 10 5 4 15 15 6 4 5 5 5 5 2 4 5 3 6 6 9 14 30 36 36
19 14 26 40 12 11 7 14 21 20 17 6 2 2 3 3 6 8 4 4 8 5 6 2 0 2 7 6 5 3 4 4 4 3 4 5 5 1 6 5 6 8 8 32 34
16 8 15 28 31 19 16 17 21 22 21 22 7 8 6 4 14 7 4 2 5 5 6 4 3 6 6 7 2 3 3 5 5 4 3 5 5 10 6 8 10 12 7 15 32
17 10 17 13 18 13 18 14 17 17 21 14 8 9 7 4 1 5 5 4 3 4 3 4 4 1 3 5 5 4 3 6 5 6 6 8 7 10 0 6 11 14 11 8 7
11 15 24 7 25 16 19 21 24 20 15 17 10 10 7 5 6 7 7 5 5 1 4 1 1 2 2 6 7 4 6 7 7 6 2 3 6 6 12 12 14 13 12 8 6
27 24 24 12 19 17 21 22 22 15 15 18 10 5 6 4 11 11 7 12 11 8 6 5 5 3 3 4 5 6 7 7 5 4 4 4 5 8 10 12 14 12 12 13 5

GFSSW_850_spd_030.txt.gz
Wind_Speed
13 14 16 16 17 18 19 20 21 22 24 25 23 21 20 18 17 15 8 8 4 6 7 5 3 5 6 5 7 7 1 1 5 4 2 13 8 10 6 19 16 9 12 21 18
14 15 16 15 16 17 18 20 21 22 24 23 20 19 18 17 16 3 11 6 6 5 2 4 3 3 4 3 3 4 3 5 6 4 5 14 9 9 6 14 13 30 26 19 19
15 16 16 15 15 16 17 19 20 21 22 20 18 16 16 15 8 4 10 7 3 4 5 7 5 5 5 4 5 3 6 4 5 6 12 6 2 3 9 3 17 34 19 23 24
15 16 16 15 15 15 16 18 19 20 20 18 15 14 14 10 2 5 8 7 2 6 8 5 3 3 3 3 5 3 12 13 5 10 9 6 8 3 8 7 18 21 27 29 26
15 16 16 15 15 15 16 17 18 19 17 15 13 13 13 8 5 5 6 4 4 9 10 5 4 3 3 4 7 6 14 3 14 20 13 7 9 7 14 25 31 34 31 32 38
16 16 16 15 15 15 16 17 18 17 15 13 12 12 10 5 3 5 9 2 5 10 6 4 7 18 11 5 3 13 5 13 19 16 10 8 5 4 12 31 29 33 33 28 40
18 16 16 15 15 15 15 16 17 15 13 11 12 12 13 12 2 4 4 4 6 4 1 4 11 8 6 6 17 11 3 12 9 11 4 11 2 5 22 24 28 28 26 31 38
19 17 16 16 15 15 15 16 17 13 12 10 10 13 9 3 8 9 4 5 1 3 7 9 10 9 3 7 9 6 5 5 9 10 13 2 3 5 24 28 24 28 28 30 36
21 17 17 16 15 15 15 15 16 12 12 9 8 8 8 9 12 13 9 7 5 6 9 13 9 5 5 3 5 5 1 2 3 14 7 4 3 6 22 25 23 21 32 34 37
23 19 17 16 15 15 14 15 15 13 12 9 11 8 8 2 7 10 13 7 9 5 6 2 2 3 3 4 1 2 2 3 3 4 5 7 7 7 22 24 25 23 34 36 40
24 21 17 15 14 15 13 11 7 3 5 10 5 10 12 6 5 11 11 13 7 4 2 1 4 2 5 5 2 2 5 7 13 9 5 8 7 9 19 18 21 29 32 34 38
23 21 17 15 13 13 12 8 4 5 12 20 20 25 25 18 8 8 9 11 4 4 0 4 2 3 4 2 4 5 7 8 12 8 6 6 6 8 11 18 28 32 32 39 38
25 22 18 15 12 12 10 11 12 14 6 15 16 22 18 10 8 10 11 11 4 3 4 5 5 4 2 3 4 6 5 6 5 4 6 5 5 1 3 10 22 30 40 39 43
26 22 18 13 10 8 2 9 1 5 3 6 8 9 12 10 6 16 11 12 3 8 3 3 1 2 3 3 4 7 6 5 6 4 0 3 2 4 4 7 13 16 24 37 39
27 23 18 15 7 9 3 7 6 1 3 4 7 5 15 12 2 6 13 11 7 6 4 6 5 3 2 7 2 9 4 2 2 4 3 3 3 5 2 6 10 21 28 32 40
29 24 23 21 18 10 6 4 9 2 8 4 10 8 7 12 7 1 8 11 5 4 2 4 3 6 7 6 5 5 3 6 5 3 2 4 4 5 4 10 6 10 22 31 38
32 27 28 22 19 15 11 5 3 5 5 5 7 8 9 7 5 7 4 4 5 4 3 4 4 6 3 2 3 3 5 3 4 4 5 5 4 8 7 8 11 15 10 16 37
30 29 28 25 18 14 11 2 9 7 7 3 7 11 9 7 9 6 7 6 4 4 3 4 4 3 3 4 2 5 5 5 4 2 4 4 5 6 7 18 21 12 9 10 21
29 31 30 29 22 16 10 9 8 6 5 4 4 8 5 7 7 6 8 9 9 9 7 5 4 5 5 4 5 4 2 4 6 4 2 4 4 6 5 5 0 4 7 10 22
32 31 34 31 25 19 6 14 6 10 6 4 7 7 9 9 8 8 9 6 7 9 9 7 1 5 6 4 4 6 4 1 3 3 3 4 4 4 2 4 4 3 9 14 25
29 17 26 34 24 13 12 11 14 31 11 4 3 5 9 8 10 7 9 6 9 5 7 6 4 3 2 3 7 2 0 2 4 4 4 1 5 5 7 7 8 13 19 25 32
29 8 27 39 13 9 15 13 15 23 13 8 4 10 9 9 8 9 11 9 13 18 10 8 5 3 10 8 2 4 6 6 5 4 1 4 5 4 7 8 12 16 24 29 36
19 14 33 39 12 13 8 19 24 12 7 4 5 7 2 6 5 5 1 2 5 10 9 7 1 2 7 6 4 5 6 4 4 4 6 5 5 3 5 6 13 19 25 33 38
17 9 14 29 30 21 18 16 19 23 20 14 9 8 2 3 2 4 4 2 3 6 6 12 4 7 7 6 3 2 1 3 5 3 4 6 5 7 8 8 11 13 17 31 37
20 10 19 15 19 15 20 14 21 14 15 10 9 17 9 4 4 6 5 2 4 6 3 4 5 4 4 4 1 1 5 4 5 5 5 8 8 10 3 2 11 18 7 7 23
15 8 24 8 26 20 21 23 26 19 11 18 14 12 8 7 8 8 8 4 5 2 3 2 3 1 2 3 3 3 6 5 5 3 5 5 4 6 9 12 16 11 12 13 10
42 26 26 12 18 17 23 24 26 20 15 32 12 14 5 9 7 11 19 20 14 9 5 5 6 3 4 4 4 5 7 7 6 3 4 4 4 4 7 9 8 12 12 11 12

GFSSW_850_spd_036.txt.gz
Wind_Speed
14 15 16 16 15 15 14 15 16 18 19 22 24 22 21 19 14 5 5 7 6 3 4 3 2 5 8 5 3 4 4 2 4 2 5 3 2 2 4 5 4 2 9 15 24
16 16 16 16 15 15 14 14 16 18 19 20 22 20 18 17 6 4 7 10 6 2 2 4 4 5 3 1 3 4 3 5 5 4 4 4 3 5 3 4 4 11 12 20 19
17 17 16 16 16 15 14 15 16 18 19 20 21 18 16 15 4 3 9 8 4 2 5 7 6 3 2 3 6 5 5 6 9 14 7 5 3 4 11 2 7 13 21 23 21
20 18 17 17 17 16 15 15 16 18 19 19 19 17 15 10 1 4 7 5 1 5 8 7 2 2 3 2 3 2 12 10 6 6 6 5 8 4 1 3 13 18 19 21 19
21 21 19 18 17 17 17 16 16 18 18 19 18 16 13 6 4 3 5 4 3 7 8 5 1 1 1 3 2 3 4 5 9 7 7 9 3 5 3 9 15 14 17 18 18
24 24 22 19 18 17 17 16 16 18 18 18 17 15 11 5 5 2 3 4 5 8 6 2 3 6 4 3 1 5 7 2 5 6 7 10 3 3 2 14 14 19 18 16 15
25 24 22 20 18 18 18 17 17 18 19 18 16 16 14 13 8 6 1 3 5 6 3 3 6 6 7 4 5 6 0 2 2 5 3 12 3 3 16 16 18 19 19 13 14
26 24 23 23 19 18 18 17 18 18 18 18 15 15 10 5 13 10 5 3 3 4 6 6 7 10 3 7 5 4 3 1 1 2 3 3 2 3 18 21 19 18 16 16 15
22 24 22 21 19 17 17 18 18 19 19 17 13 8 9 5 13 10 8 5 2 4 10 7 7 4 3 2 4 6 1 4 3 4 3 2 1 5 19 20 19 19 18 17 18
20 21 21 18 19 18 16 18 18 18 16 13 13 8 9 4 6 10 11 10 7 6 3 1 1 2 3 3 2 1 2 3 2 3 2 4 2 5 23 19 20 21 21 21 20
22 20 19 17 19 18 15 13 10 7 7 9 2 6 7 4 8 9 10 9 7 2 2 3 4 2 5 5 4 3 2 3 5 4 6 9 5 11 19 16 15 24 23 24 24
23 20 19 17 17 18 14 10 6 5 11 16 21 28 25 23 9 8 10 8 6 4 1 5 3 6 4 3 4 2 4 6 6 3 5 4 6 12 15 22 26 30 29 30 30
25 22 19 14 15 19 15 11 10 9 6 13 19 18 24 17 10 10 14 12 4 4 4 5 4 2 3 3 4 4 2 5 4 5 1 4 2 5 5 11 20 24 32 30 32
25 21 16 12 14 18 14 7 11 6 3 7 6 8 15 10 6 14 16 11 2 8 6 4 4 3 1 2 4 2 5 3 5 1 1 3 3 4 5 15 8 25 31 35 33
24 22 17 16 10 6 7 3 8 7 3 3 4 2 15 17 8 14 15 11 8 6 6 8 2 5 3 5 5 8 3 2 2 2 3 3 4 4 4 7 18 21 33 39 38
22 21 20 21 23 13 10 1 5 3 7 4 7 7 7 9 5 8 15 6 5 5 1 5 2 4 5 4 6 1 2 6 4 3 2 3 4 5 5 12 17 21 30 42 41
23 22 26 27 23 20 16 4 4 5 1 5 5 6 6 6 4 5 7 6 6 4 3 2 3 2 3 2 2 3 5 3 3 4 4 3 2 8 8 4 8 12 30 45 47
25 22 29 31 23 17 9 4 10 5 6 3 1 4 8 6 6 5 6 6 2 4 3 5 5 6 3 6 7 3 6 5 2 2 3 3 5 6 2 8 11 17 20 29 40
26 24 32 34 28 24 11 10 7 6 4 3 2 5 4 4 6 4 8 8 9 8 7 4 4 1 1 1 2 3 2 4 6 3 2 3 6 9 3 4 7 6 5 17 26
30 26 36 33 29 23 5 17 7 5 3 2 7 6 9 7 6 8 9 6 7 10 5 7 2 1 1 2 3 2 6 3 3 2 3 4 4 5 7 4 2 5 8 7 14
30 15 15 34 30 14 10 10 16 20 2 2 2 2 7 8 9 6 9 2 8 6 6 5 4 4 0 5 8 2 2 4 5 4 4 1 5 7 7 6 6 5 7 11 12
29 7 20 42 17 14 17 7 15 19 6 4 3 4 4 7 7 8 10 10 17 13 9 7 6 4 9 3 3 5 6 6 5 4 1 4 6 5 8 6 7 11 6 6 6
20 14 27 50 14 17 13 13 7 14 8 6 4 4 1 4 4 6 7 6 15 9 9 7 1 2 7 5 4 4 4 3 5 3 6 5 6 3 7 8 10 11 11 9 7
13 8 17 35 41 19 23 16 23 14 5 10 2 3 1 3 4 7 7 5 13 12 8 12 4 7 8 8 4 4 6 5 5 4 4 6 6 8 8 6 12 14 16 14 12
15 9 15 14 24 21 19 14 21 17 22 12 2 5 3 3 1 4 2 2 2 7 6 7 7 5 4 4 4 5 4 8 7 5 6 7 7 9 7 5 10 12 7 7 9
8 8 18 9 31 24 13 24 24 23 8 16 6 9 8 5 7 5 3 4 6 5 6 1 5 4 2 2 2 3 5 5 4 3 5 6 7 7 4 2 3 2 5 11 8
34 26 12 20 20 18 30 18 20 18 25 11 23 17 8 20 26 21 15 8 2 5 9 7 7 4 4 3 4 7 9 9 6 5 7 7 10 6 2 3 5 10 14 16 15

GFSSW_850_spd_039.txt.gz
Wind_Speed
17 17 17 17 17 17 16 15 16 17 18 19 20 20 19 16 8 4 4 6 4 2 5 3 4 6 8 4 3 1 1 3 3 3 1 2 4 2 2 2 1 0 4 12 20
19 18 17 17 17 17 17 16 16 17 18 19 20 20 17 14 2 1 4 6 2 3 4 5 4 7 4 5 5 3 2 5 5 4 1 1 2 7 4 3 1 4 8 21 20
19 20 18 18 17 17 17 17 17 17 18 20 20 18 16 13 3 1 6 4 1 5 8 8 7 5 1 3 4 4 4 3 8 11 4 1 3 5 6 3 4 8 17 20 16
23 21 19 20 18 18 17 17 17 18 18 19 20 18 15 8 2 1 5 3 4 8 10 8 3 3 1 3 5 3 10 8 6 0 5 6 6 2 2 5 4 13 19 19 20
25 24 22 20 20 17 17 17 17 18 19 19 19 18 14 7 5 3 3 4 7 11 10 6 2 2 1 4 2 5 5 4 6 3 4 6 3 2 5 9 12 16 15 16 18
27 25 23 22 20 20 17 17 18 19 19 18 19 17 13 6 5 3 3 6 9 12 9 5 2 3 3 5 3 3 3 1 4 4 5 6 4 2 5 10 12 13 12 12 13
22 26 24 22 22 20 17 16 18 19 19 19 18 18 15 16 7 8 5 7 9 9 6 2 2 3 5 4 5 3 1 3 2 1 2 5 3 3 9 11 13 12 10 10 12
22 22 23 21 21 21 17 16 18 19 20 20 18 17 10 7 12 12 7 6 8 7 5 4 3 7 3 6 5 2 3 1 1 1 1 4 2 2 9 11 13 12 10 11 13
21 21 20 21 19 21 17 16 18 20 20 19 15 9 10 6 12 13 10 5 5 5 4 7 5 2 1 1 2 5 1 0 2 4 4 1 1 6 11 11 13 13 11 11 14
22 20 19 19 18 18 19 16 17 18 17 13 12 6 11 4 7 10 11 10 7 4 3 2 2 0 1 1 3 3 1 1 1 2 3 4 4 8 14 14 15 14 13 13 14
23 20 20 18 16 16 18 13 10 6 6 8 3 5 3 3 8 11 12 10 9 3 2 1 2 5 8 5 4 4 3 0 2 3 3 9 6 13 18 13 13 15 16 18 19
21 20 19 17 13 14 14 11 11 8 11 15 19 27 27 17 6 11 14 11 6 5 3 1 3 3 3 5 5 3 1 2 1 2 6 5 6 2 15 14 18 17 18 20 20
20 20 15 14 11 13 14 12 16 11 6 10 19 18 24 20 12 12 18 11 4 5 5 4 3 2 3 3 4 2 1 2 3 1 2 2 2 2 6 12 13 18 17 21 23
19 18 14 7 10 11 15 9 9 10 4 6 6 8 17 14 7 17 20 12 3 9 7 4 1 2 2 4 3 2 1 3 3 1 2 1 2 4 5 10 12 20 20 26 26
21 16 15 15 6 4 3 4 2 7 4 2 5 4 12 17 14 16 22 9 8 6 5 4 4 3 5 5 5 4 3 1 1 2 2 1 1 1 1 9 17 23 26 30 32
22 18 16 21 21 12 8 3 4 1 7 2 7 6 6 6 5 11 10 8 7 5 1 3 2 5 5 3 4 4 2 4 3 2 1 1 2 3 4 7 8 21 27 35 35
28 22 21 23 21 19 12 6 2 6 5 4 4 6 6 6 5 4 7 6 6 5 4 0 3 2 4 3 1 2 2 1 1 1 2 3 1 6 5 6 8 12 23 34 42
28 24 24 30 18 20 12 3 10 5 10 3 2 5 8 6 4 4 8 10 2 4 3 6 3 7 4 5 6 5 4 4 3 3 1 1 4 2 3 7 11 11 17 18 27
27 28 30 34 28 19 13 10 8 7 4 3 2 4 3 3 5 4 7 14 10 8 5 4 4 1 2 2 3 3 3 2 6 2 0 1 4 8 1 1 3 4 6 9 15
30 32 34 33 31 22 6 21 10 8 1 1 4 4 9 6 4 9 8 5 7 9 5 6 1 1 2 2 3 2 6 2 1 3 3 2 3 3 3 2 3 7 5 7 6
33 16 19 31 32 18 15 16 21 14 3 2 2 2 4 6 7 5 9 3 8 8 4 5 2 2 2 5 7 3 3 4 3 1 3 2 4 6 6 2 4 6 6 5 7
31 8 16 39 19 15 18 16 10 19 10 5 2 3 3 6 6 7 12 9 17 16 9 5 4 4 7 1 2 3 6 6 3 5 1 0 5 3 7 6 7 9 4 2 5
18 19 21 52 14 17 16 28 5 15 14 6 7 5 1 3 4 6 6 7 17 9 9 7 2 2 2 1 1 4 5 4 4 2 7 4 4 1 3 6 7 12 8 6 4
15 8 15 39 39 23 19 20 26 14 8 13 3 3 1 2 3 5 5 4 15 10 9 15 4 6 10 7 4 4 5 5 5 3 4 6 6 7 7 6 12 9 12 13 11
17 7 15 13 24 22 21 19 25 17 18 16 5 7 5 5 1 4 3 2 3 7 5 6 7 6 4 3 5 5 6 11 9 6 7 8 9 8 7 6 7 11 10 4 1
10 8 19 8 37 22 16 19 26 26 16 16 14 13 12 4 6 6 5 2 2 1 6 3 4 5 4 3 5 5 3 9 10 2 8 5 10 9 5 6 3 1 4 10 11
24 24 29 20 19 20 25 21 17 19 23 8 14 2 8 18 17 8 8 4 5 5 4 4 7 4 4 1 1 4 8 10 4 5 6 8 11 4 6 6 7 8 12 15 17

GFSSW_850_spd_042.txt.gz
Wind_Speed
16 17 16 16 16 16 16 16 16 16 18 18 19 20 20 17 10 1 1 2 1 4 6 6 6 7 5 4 5 4 5 3 1 4 7 2 4 3 3 4 3 1 2 5 18
18 16 17 18 16 16 16 17 17 17 17 18 19 20 18 17 8 3 3 3 1 4 6 8 8 10 5 5 4 7 4 2 4 6 8 6 8 3 5 5 6 3 4 12 19
21 20 20 18 18 17 16 16 17 18 18 18 18 19 18 15 6 4 3 3 3 6 9 6 9 6 4 4 6 2 7 6 8 8 8 6 2 1 6 6 4 6 18 20 17
25 24 21 19 20 18 18 16 17 18 18 18 19 19 16 10 2 4 4 3 7 10 11 8 6 5 3 5 2 8 8 8 7 6 4 2 2 2 3 6 1 11 17 17 16
21 24 25 23 21 20 19 17 17 18 19 19 18 19 15 7 7 7 3 4 10 12 9 7 5 3 3 3 3 10 9 9 6 3 2 3 0 3 3 5 9 12 11 13 14
18 19 21 23 23 21 20 17 17 18 20 19 19 18 13 9 7 7 4 7 11 12 8 5 2 1 2 5 5 7 10 2 3 1 3 4 4 4 6 8 9 11 9 12 12
20 19 18 19 22 21 20 17 16 18 19 21 20 19 17 15 8 10 8 9 12 10 6 5 3 3 3 4 2 10 8 6 6 4 2 4 5 6 10 9 11 11 12 11 10
19 19 18 16 18 20 20 17 16 18 20 21 20 16 11 11 11 14 11 9 12 12 7 4 5 6 3 4 4 8 7 5 4 6 3 6 9 8 11 10 10 12 12 14 14
21 19 18 16 15 18 19 17 16 18 20 20 15 8 8 7 13 15 15 7 10 9 7 7 5 6 5 8 7 7 5 6 3 6 2 6 4 10 12 10 11 12 15 16 16
24 22 18 17 14 17 16 16 14 18 20 16 13 7 13 5 6 12 16 12 6 8 5 6 7 8 7 9 9 6 7 5 2 4 6 7 6 8 13 12 11 13 15 17 18
21 21 21 18 15 14 11 9 7 5 6 10 4 6 2 6 9 11 14 15 9 10 9 8 9 9 8 6 6 4 6 6 1 2 4 8 10 7 14 14 14 13 14 15 16
19 19 19 18 15 10 9 5 5 5 11 16 21 26 23 8 4 12 15 15 12 14 8 6 10 1 2 5 6 6 6 4 1 2 5 7 7 5 13 15 15 14 15 15 15
21 17 15 13 13 12 10 9 10 9 8 11 17 16 18 20 13 18 20 19 14 14 12 12 5 5 6 8 8 9 7 3 3 1 6 6 7 8 9 13 13 15 15 16 18
23 18 13 7 10 10 8 10 7 4 6 6 8 11 14 12 12 21 22 19 8 16 11 10 4 6 6 7 10 11 2 3 5 6 4 3 4 7 9 12 15 17 19 18 20
23 22 15 16 7 7 7 8 6 6 7 4 5 4 7 19 16 23 23 15 17 10 9 10 9 10 8 10 8 7 1 4 5 6 4 6 6 8 5 9 14 20 23 23 23
24 24 18 19 21 13 12 12 6 5 9 3 7 8 9 17 12 22 19 14 12 11 10 9 2 4 3 4 7 5 3 4 4 5 6 4 6 4 5 5 3 6 22 25 25
29 23 23 18 19 16 15 6 6 9 2 5 6 8 14 13 14 20 23 21 16 16 15 13 12 6 6 9 7 9 7 6 6 6 7 3 6 8 2 3 6 8 8 18 27
33 26 27 24 17 20 14 6 13 8 18 2 3 9 13 15 14 17 23 21 23 19 11 14 12 14 11 12 11 13 11 6 4 5 4 3 6 2 3 6 8 8 10 11 16
30 31 30 30 26 20 18 14 13 14 8 9 3 8 12 13 10 13 20 24 21 19 14 14 12 6 8 6 9 7 8 1 2 1 4 4 5 8 1 2 2 4 4 4 8
30 33 35 28 29 26 10 25 17 15 10 9 12 9 12 16 12 15 17 19 22 21 19 7 10 6 7 7 4 5 9 5 4 5 6 4 5 2 4 4 1 2 4 3 1
29 18 20 32 28 19 12 24 27 20 15 8 11 10 7 11 17 19 14 7 24 21 20 10 9 7 7 11 12 6 6 4 3 3 5 5 5 2 6 2 3 1 2 4 2
32 7 21 41 18 10 17 32 12 23 19 10 7 6 8 12 16 16 22 16 22 21 20 15 9 8 14 5 2 7 9 10 6 6 3 5 8 5 9 6 6 4 4 4 5
26 11 25 42 14 13 29 29 27 18 25 14 11 9 6 5 7 17 15 17 16 20 19 13 10 11 10 6 4 8 10 10 6 2 11 7 5 5 3 6 8 8 6 7 5
21 6 13 34 39 29 29 25 30 29 21 21 11 7 9 6 8 4 12 6 14 21 15 21 13 16 12 13 8 8 12 14 14 7 10 11 13 9 12 11 11 7 5 6 9
27 9 16 15 20 29 27 24 25 23 32 22 19 15 13 6 5 6 5 7 6 7 8 11 15 16 16 16 15 17 15 14 16 16 13 13 14 13 12 12 10 4 5 4 4
18 12 28 22 40 32 29 28 29 32 23 24 19 23 13 13 5 2 4 1 6 6 9 8 12 10 12 12 13 15 16 16 18 17 13 17 18 14 17 8 8 5 3 5 7
29 28 32 21 28 23 24 32 28 25 36 27 24 15 19 20 5 9 8 11 8 2 10 8 9 7 14 10 9 10 14 16 15 13 16 16 16 15 11 12 11 6 7 10 12

GFSSW_850_spd_048.txt.gz
Wind_Speed
23 20 20 20 19 21 18 18 19 20 20 20 21 21 21 23 19 13 6 10 7 8 6 2 7 10 11 14 18 15 11 10 13 10 3 7 5 8 31 3 15 17 35 2 5
24 24 23 22 21 20 22 22 20 20 22 21 21 22 21 23 23 17 12 12 10 8 7 7 9 10 14 19 13 11 12 7 13 8 12 14 10 13 8 15 15 39 30 6 4
21 22 24 24 24 23 21 22 22 20 21 23 22 21 21 22 18 3 11 13 10 8 10 9 12 11 17 20 12 16 12 7 17 8 9 15 10 16 6 7 2 4 6 7 7
20 19 19 20 21 23 24 22 23 24 22 21 23 22 19 15 6 2 5 10 9 9 10 9 11 14 17 16 14 7 14 14 14 13 8 14 9 7 18 13 14 12 10 8 8
21 20 19 19 19 19 21 23 21 22 23 22 21 21 20 8 16 13 12 12 10 11 11 11 12 14 17 18 11 10 14 12 10 7 8 13 25 35 15 17 15 13 11 10 9
22 22 20 20 19 19 19 19 20 20 21 22 21 20 14 16 8 10 9 12 11 13 12 13 13 14 13 18 14 14 11 17 11 14 3 19 9 29 8 14 14 12 10 7 7
22 22 22 20 19 19 20 20 20 19 20 19 19 19 16 29 9 7 10 10 10 14 13 11 12 11 15 14 17 14 15 16 6 13 3 12 7 6 17 3 13 14 11 10 10
20 21 22 21 20 19 20 19 19 19 20 18 16 15 15 12 11 17 16 13 12 14 14 10 8 13 17 18 21 15 18 16 8 12 6 13 4 14 20 10 11 18 14 16 15
20 21 21 22 21 20 19 18 17 18 19 17 13 6 15 12 21 19 19 17 14 14 14 12 9 15 18 16 14 16 14 12 12 8 4 9 2 19 24 15 12 21 16 17 15
19 20 20 21 21 19 19 17 14 20 16 8 9 8 18 16 12 15 20 18 17 15 15 15 13 12 14 13 14 15 13 9 7 5 9 10 16 16 18 16 12 19 20 22 20
22 19 18 19 22 16 17 15 10 5 9 11 7 12 17 7 5 12 20 18 15 20 16 19 13 15 20 19 19 15 15 11 15 9 7 10 4 17 7 19 18 19 20 22 21
18 19 17 18 21 16 11 5 7 8 14 21 28 28 28 14 8 14 21 20 20 18 19 16 18 19 20 13 11 12 14 15 6 8 4 11 8 20 18 24 20 22 24 25 23
16 21 18 17 19 17 13 15 9 13 10 27 31 32 34 28 26 20 26 27 19 18 19 19 19 14 11 10 11 12 15 7 9 9 10 11 13 12 16 17 21 22 25 29 31
22 17 19 14 14 6 14 9 10 8 7 15 19 12 33 27 25 32 26 28 16 20 21 19 22 12 11 11 13 14 9 11 6 9 10 4 10 6 11 13 12 20 24 26 27
18 17 18 14 7 6 4 7 5 2 7 7 13 8 12 34 8 28 32 32 25 22 12 19 20 17 12 14 14 12 4 9 9 11 12 5 8 1 10 14 15 15 24 28 30
18 18 15 19 16 13 5 7 8 5 11 6 10 10 11 26 33 21 35 37 33 22 21 21 22 17 14 15 13 8 8 10 12 11 9 14 9 4 4 9 12 20 23 26 32
21 19 20 17 18 9 9 5 6 12 8 12 10 10 14 15 22 24 24 26 23 21 20 21 22 19 14 18 13 9 9 8 6 7 8 9 6 6 13 17 13 16 26 29 29
24 20 23 20 19 13 11 5 14 14 27 5 10 15 15 15 19 22 22 23 25 24 14 17 14 23 12 16 14 13 14 7 6 3 7 10 5 7 13 5 4 2 4 18 30
23 24 23 19 23 15 8 13 19 23 18 28 13 9 14 15 15 18 22 22 24 25 18 16 22 19 18 13 17 15 14 16 7 7 7 5 7 14 11 7 5 8 6 8 11
26 26 27 22 26 19 7 21 28 24 25 24 25 18 12 16 16 17 23 17 24 25 20 17 12 19 22 21 19 17 11 10 9 4 4 8 12 5 10 8 8 6 5 7 3
28 13 15 24 26 18 10 18 30 34 34 25 25 20 20 23 15 19 21 21 22 20 20 20 14 12 13 12 16 12 16 9 15 10 6 4 1 6 12 3 7 4 11 3 3
28 5 19 35 16 8 17 36 33 33 35 30 25 23 23 20 19 18 21 17 15 20 25 24 4 9 15 16 16 18 17 16 8 8 4 2 6 2 6 7 5 9 7 6 2
17 11 22 43 12 15 23 35 34 28 32 26 30 27 25 20 18 10 20 18 10 12 18 18 14 10 14 12 17 16 15 13 13 10 12 8 6 4 7 2 8 3 10 15 14
17 7 14 36 35 25 26 35 33 41 31 37 25 24 24 20 18 9 12 14 7 8 12 1 14 13 10 15 14 15 15 18 13 5 8 10 13 14 7 6 9 9 19 19 9
23 9 16 14 22 27 25 20 27 26 36 35 28 27 20 20 16 18 16 15 9 11 3 6 15 17 15 18 18 20 21 20 20 15 14 11 16 17 12 6 4 9 5 4 6
15 11 30 15 32 27 24 29 32 23 26 35 27 27 22 20 18 16 15 11 12 11 11 8 10 12 15 16 20 13 22 19 19 21 19 19 17 15 16 16 20 12 11 12 9
32 41 30 23 23 21 25 33 32 26 26 36 31 25 20 21 19 31 15 5 9 9 13 10 6 11 12 15 18 19 18 19 15 15 12 15 12 12 8 13 12 12 10 11 10

GFSSW_850_spd_051.txt.gz
Wind_Speed
21 22 22 22 22 21 21 21 21 21 20 22 21 20 22 24 23 21 19 10 8 7 7 5 3 3 6 20 20 23 3 7 13 7 4 11 3 4 10 12 4 1 1 4 10
20 20 21 22 22 22 22 22 22 22 20 22 23 22 21 24 26 23 10 11 9 9 8 7 6 9 11 19 19 5 3 10 14 1 4 12 11 3 6 3 3 4 2 7 9
19 19 19 19 19 20 21 22 23 22 23 22 23 23 21 22 23 3 2 8 9 10 8 10 13 16 19 24 29 17 7 10 12 4 8 7 15 32 9 3 3 6 4 12 12
21 20 19 18 18 19 19 19 20 22 22 23 22 22 21 17 5 4 7 6 8 10 10 12 8 15 7 9 29 7 11 12 15 9 7 6 6 11 24 12 7 7 11 12 7
21 21 20 19 19 18 19 18 19 19 20 21 21 21 19 9 22 15 12 11 11 12 13 12 14 19 10 8 15 5 6 12 16 9 20 14 10 10 12 7 7 7 9 10 13
22 22 21 19 20 19 18 18 18 18 18 18 18 19 16 11 6 8 15 15 15 14 14 12 14 20 19 14 8 16 14 11 16 4 8 8 5 7 3 7 6 6 5 7 9
22 22 23 23 21 21 20 18 17 18 16 16 15 17 23 33 10 8 8 15 11 14 14 9 9 20 14 9 16 24 8 9 14 6 5 17 5 4 8 5 13 11 7 6 7
24 20 23 24 23 21 21 20 18 17 18 14 15 15 17 18 12 22 19 15 13 13 13 14 13 9 8 17 16 9 8 6 12 7 6 11 8 5 7 6 20 17 10 10 10
20 23 19 23 24 23 22 20 17 18 19 15 13 10 16 8 15 24 19 20 17 17 17 16 11 7 13 5 6 5 10 12 14 8 6 4 3 10 5 11 14 22 18 16 10
18 19 22 21 24 24 22 21 15 20 18 11 8 8 14 13 11 10 19 19 20 16 14 16 7 4 4 1 7 8 7 8 5 6 9 6 7 6 15 11 16 24 23 22 18
18 19 18 19 20 23 21 17 5 4 4 12 8 15 20 10 10 6 11 19 21 18 10 14 4 9 12 12 17 17 15 9 5 7 4 11 12 12 18 11 13 23 29 25 24
20 18 16 16 17 22 18 11 4 9 14 20 28 33 34 29 14 13 15 17 15 15 9 9 14 15 16 17 18 13 5 8 4 4 5 10 11 15 13 17 22 27 29 30 29
19 19 17 17 17 18 12 16 12 13 7 23 35 31 42 34 31 28 21 28 7 11 11 14 10 17 20 20 8 7 6 7 3 3 6 3 5 10 7 6 12 29 35 32 35
17 16 17 14 13 5 10 9 8 3 5 9 11 12 25 30 11 37 27 24 7 16 14 12 18 19 17 10 5 6 9 4 9 0 3 3 3 9 10 15 20 26 32 34 38
20 16 14 12 8 12 4 4 6 5 5 8 6 8 11 24 11 16 36 21 20 13 9 11 9 14 14 7 7 10 7 2 4 6 5 5 3 5 19 18 20 17 33 39 41
19 16 12 14 21 17 15 1 8 1 10 6 8 6 9 25 14 4 24 31 19 14 15 14 19 14 13 7 9 8 3 3 3 2 4 10 5 4 7 10 16 25 35 41 42
19 19 17 15 22 5 9 5 3 7 7 6 5 9 8 9 19 17 9 12 12 14 17 16 19 16 14 6 5 6 1 3 5 3 6 5 6 8 11 9 16 19 36 40 45
20 19 20 18 17 10 8 3 10 8 16 4 3 12 10 8 14 17 18 14 17 15 6 13 12 17 13 12 8 7 7 5 5 2 4 6 4 5 8 12 12 23 39 40 43
19 19 23 20 17 16 6 9 8 11 14 12 14 8 9 12 8 16 18 18 16 21 16 10 17 7 19 6 8 5 5 8 5 2 4 5 5 5 4 4 3 8 16 32 40
22 22 28 19 14 18 7 22 14 9 16 12 9 7 4 3 11 9 9 12 16 21 21 5 6 14 18 14 9 11 4 3 2 5 4 6 5 4 5 8 6 3 6 9 29
23 11 13 23 18 14 14 18 16 31 24 6 8 13 11 12 10 7 5 10 10 20 20 19 9 11 7 11 15 5 9 3 5 5 6 2 5 5 5 2 6 7 14 10 10
22 5 18 33 12 11 20 13 24 13 25 18 9 14 14 14 13 8 11 11 16 12 20 15 4 11 21 17 20 13 11 9 5 5 2 5 5 8 10 10 10 17 18 15 15
13 10 29 43 11 16 20 27 21 18 18 11 17 8 8 14 5 8 7 14 17 10 14 12 5 10 7 6 8 10 9 5 7 5 6 6 5 7 5 5 5 10 11 18 17
13 5 12 37 29 24 22 23 21 16 25 28 22 21 20 18 13 10 16 7 23 7 12 21 9 9 14 6 4 4 7 10 8 4 5 6 3 7 10 6 7 10 7 17 22
20 7 14 14 23 19 19 4 21 17 21 19 13 22 21 14 14 10 7 11 17 24 7 7 8 17 8 11 13 16 14 16 15 9 7 7 7 8 12 7 9 7 6 6 20
15 11 21 8 24 24 20 26 28 16 16 15 20 21 15 17 16 10 3 4 4 15 9 5 4 9 12 11 7 13 11 9 6 10 12 11 15 17 19 20 13 14 21 19 19
32 35 19 16 12 15 29 33 24 15 26 22 20 17 19 24 24 5 9 5 6 8 11 7 6 5 7 7 4 14 10 15 13 12 9 8 9 7 9 10 17 24 30 30 24

GFSSW_850_spd_054.txt.gz
Wind_Speed
17 18 19 20 21 21 21 22 23 23 22 21 22 22 21 24 24 23 23 15 8 10 4 6 4 4 6 6 9 9 1 5 7 2 5 9 4 5 9 7 4 8 5 8 9
18 18 17 17 18 18 18 19 20 22 23 23 23 23 21 23 26 23 9 7 10 8 6 7 6 4 5 4 2 5 2 8 7 4 5 6 8 3 4 8 2 10 10 6 4
20 19 18 18 17 18 17 17 16 18 21 21 22 22 21 20 24 5 2 1 7 7 7 8 9 8 8 11 6 4 7 16 24 18 14 10 8 2 5 2 5 6 8 3 3
22 22 21 19 19 18 18 18 16 16 18 20 19 20 19 15 6 3 3 4 8 11 10 11 10 4 3 2 3 2 18 24 20 6 7 6 9 3 3 3 9 7 2 4 4
21 22 22 22 22 21 18 18 17 16 17 18 17 18 18 9 26 15 17 8 10 13 13 12 13 7 3 3 8 6 6 19 11 9 14 14 3 7 7 8 9 8 4 4 4
24 24 24 24 23 24 21 19 17 18 16 16 16 17 15 9 16 8 12 12 11 16 15 14 10 9 9 5 2 8 16 16 8 10 9 6 5 5 8 11 10 10 7 6 5
21 23 25 26 25 24 23 21 19 18 17 16 16 17 19 31 16 9 14 16 11 11 18 15 17 10 8 6 5 13 7 10 7 9 6 5 2 3 9 15 12 10 9 6 5
19 20 21 25 26 27 24 24 21 18 18 16 14 16 16 14 17 24 29 23 15 11 15 13 11 14 6 4 8 5 3 3 2 5 4 2 7 5 16 18 16 10 9 7 6
20 19 20 21 24 26 25 24 22 19 20 16 12 11 17 9 12 15 23 30 16 12 15 12 16 13 3 3 4 2 6 6 10 8 7 6 7 4 18 18 20 17 13 11 8
18 21 20 23 21 24 24 22 19 18 17 12 9 7 17 16 8 15 8 22 18 12 16 16 7 3 2 3 5 6 4 3 6 4 3 4 8 1 13 17 23 21 19 17 12
21 21 21 19 19 21 22 13 6 2 4 10 7 12 25 18 15 8 8 20 18 14 8 4 3 9 11 10 5 5 7 11 16 11 4 8 6 8 9 9 16 21 22 21 16
20 20 21 19 17 19 18 12 5 11 14 24 26 34 38 29 15 16 9 15 12 9 6 4 14 15 9 8 8 8 10 15 10 5 7 5 11 1 4 5 18 23 26 26 22
21 17 17 18 19 16 14 10 8 16 6 17 33 28 38 26 24 32 13 22 5 7 8 13 6 13 11 13 9 13 12 10 7 4 2 6 6 3 4 12 12 23 31 29 31
20 18 14 16 15 10 11 4 14 5 4 9 8 16 23 20 9 40 28 19 4 15 7 9 16 14 9 11 10 13 13 6 6 3 3 5 4 4 8 11 8 24 28 34 34
19 17 15 13 11 12 7 11 9 8 4 6 6 3 12 22 8 14 39 20 15 6 9 9 9 10 15 19 10 9 6 9 5 3 2 4 2 6 12 9 14 19 29 34 38
18 17 15 16 20 16 16 14 1 2 9 6 6 7 9 14 3 3 17 21 4 6 6 14 13 5 9 10 9 9 2 5 5 2 3 6 6 4 7 19 18 20 27 37 41
18 17 17 17 17 8 10 8 3 6 4 5 5 8 8 9 9 1 7 16 8 7 11 15 18 14 10 7 4 4 5 2 3 3 6 5 3 8 16 15 20 23 32 36 43
19 16 17 23 14 10 8 3 12 6 11 4 4 3 8 6 6 7 3 7 11 3 5 9 6 14 6 15 8 7 8 5 5 3 4 5 5 5 6 10 26 35 40 37 41
18 18 22 22 15 10 5 9 6 5 4 8 13 5 4 4 5 8 9 7 8 14 7 7 8 8 12 8 9 5 3 8 6 2 2 4 7 9 2 2 9 24 27 31 42
21 21 28 18 17 13 6 16 10 4 8 5 3 3 6 7 3 4 9 7 12 13 12 4 5 8 18 3 7 10 6 4 2 5 3 4 4 6 3 6 5 8 24 33 41
23 11 20 22 19 12 11 12 14 28 24 6 5 4 2 2 4 4 2 5 12 13 16 13 4 7 2 6 8 2 3 2 5 5 6 2 5 7 9 6 6 6 22 34 39
21 5 16 28 12 8 16 13 9 15 15 13 4 6 5 2 4 2 4 4 14 7 7 12 11 15 17 9 9 4 8 9 5 5 3 4 8 5 9 9 9 9 15 21 24
11 10 24 39 11 16 11 16 10 4 6 5 5 10 6 3 5 4 4 11 12 7 6 7 6 2 7 8 2 5 9 11 5 4 8 6 5 2 5 7 11 17 20 18 22
12 5 11 33 18 10 14 19 18 12 18 17 9 8 6 9 5 8 11 8 19 6 18 9 7 15 15 5 4 4 10 13 9 4 5 7 6 6 8 8 11 12 18 23 25
18 7 12 8 19 14 12 9 23 18 17 6 8 19 6 6 9 12 6 7 6 9 8 5 8 6 13 17 16 18 11 8 9 7 9 8 11 12 10 10 16 21 17 17 26
13 8 12 2 17 22 23 22 20 17 10 19 19 9 15 18 17 6 9 6 5 5 5 8 5 4 8 13 9 12 16 15 8 4 8 7 9 8 19 20 10 23 25 24 22
32 20 14 14 11 15 29 20 15 17 14 25 15 17 17 10 13 15 17 17 7 3 3 5 5 9 15 8 12 12 16 7 6 6 6 6 9 8 9 8 13 24 28 23 24